Flag for Germany Weather past 2 weeks in Bruchsal, Baden-Württemberg, Germany

Now
57 °F

Passing clouds.


Feels Like: 57 °F
Forecast: 34 / 62 °F
Wind: 5 mph from East

Location: Baden Wurttemberg - Neuostheim


UV Index: 3 (Moderate)

Visibility: N/A


Pressure: 30.36 "Hg

Humidity: 33%

Dew point: 28 °F

Location of BruchsalLocation

Historic Weather in Bruchsal

°F

Bruchsal temperature yesterday

Maximum temperature yesterday: 50 °F (at 4:50 PM)
Minimum temperature yesterday: 41 °F (at 6:50 AM)
Average temperature yesterday: 47 °F

Past Weeks' High & Low Weather Summary

 TemperatureHumidityPressure
High75 °F (Apr 4, 4:20 PM)100% (Apr 5, 7:20 AM)30.42 "Hg (Apr 5, 7:20 AM)
Low36 °F (Apr 16, 5:50 AM)22% (Apr 1, 5:20 PM)29.62 "Hg (Apr 3, 5:50 PM)
Average58 °F55%30.02 "Hg
* Reported Apr 1 5:20 PM — Apr 16 5:50 PM, Bruchsal, Weather by CustomWeather, © 2014

Note: Actual official high and low records may vary slightly from our data, if they occured in-between our weather recording intervals... More about our weather records

Advertising

Historic Weather Conditions — Data for Previous 24 hours

 ConditionsComfort  
Time TempWeatherWind HumidityBarometerVisibility
5:50 PM
Apr 16
57 °FPassing clouds.5 mph33%30.36 "HgN/A
5:20 PM57 °FPassing clouds.5 mph31%30.36 "HgN/A
4:50 PM57 °FPassing clouds.7 mph31%30.36 "HgN/A
4:20 PM57 °FPassing clouds.5 mph36%30.36 "HgN/A
3:50 PM55 °FPassing clouds.10 mph38%30.36 "HgN/A
3:20 PM55 °FPassing clouds.7 mph36%30.39 "HgN/A
2:50 PM55 °FPassing clouds.8 mph38%30.39 "HgN/A
2:20 PM54 °FPassing clouds.6 mph41%30.39 "HgN/A
1:50 PM55 °FScattered clouds.5 mph41%30.39 "HgN/A
1:20 PM54 °FPartly sunny.7 mph44%30.39 "HgN/A
12:50 PM52 °FScattered clouds.7 mph47%30.42 "HgN/A
12:20 PM52 °FScattered clouds.3 mph50%30.42 "HgN/A
11:50 AM50 °FScattered clouds.3 mph54%30.42 "HgN/A
11:20 AM50 °FScattered clouds.3 mph54%30.42 "HgN/A
10:50 AM48 °FPassing clouds.2 mph58%30.42 "HgN/A
10:20 AM46 °FPassing clouds.2 mph62%30.42 "HgN/A
9:50 AM45 °FSunny.2 mph61%30.42 "Hg10 mi
9:20 AM45 °FPassing clouds.5 mph61%30.42 "HgN/A
8:50 AM41 °FSunny.6 mph70%30.42 "Hg10 mi
8:20 AM41 °FSunny.3 mph70%30.42 "Hg10 mi
7:50 AM37 °FSunny.5 mph81%30.39 "HgN/A
7:20 AM37 °FPassing clouds.5 mph75%30.39 "HgN/A
6:50 AM36 °FClear.5 mph81%30.39 "Hg10 mi
6:20 AM37 °FClear.5 mph81%30.39 "Hg10 mi
5:50 AM36 °FClear.5 mph81%30.36 "Hg10 mi
1:50 AM43 °FClear.3 mph66%30.33 "Hg10 mi
12:50 AM45 °FClear.3 mph61%30.33 "Hg10 mi
10:20 PM
Apr 15
46 °FClear.6 mph53%30.30 "Hg10 mi
9:50 PM48 °FClear.8 mph50%30.30 "Hg10 mi
9:20 PM48 °FClear.9 mph46%30.30 "Hg10 mi
8:50 PM48 °FPassing clouds.9 mph46%30.30 "HgN/A
8:20 PM48 °FPassing clouds.8 mph46%30.30 "HgN/A
7:50 PM48 °FSunny.8 mph46%30.27 "Hg10 mi
7:20 PM48 °FPassing clouds.9 mph43%30.27 "HgN/A
6:50 PM48 °FSunny.12 mph46%30.30 "Hg10 mi
6:20 PM48 °FPassing clouds.10 mph46%30.27 "HgN/A
Weather by CustomWeather, © 2014

See weather overview